Regional Weather Roundup
Issued by NWS

Home | Current Version | Previous Version | Text Only | Print | Product List | Glossary On
Versions: 1 2 3 4 5 6 7 8 9 10 11 12 13 14 15 16 17 18 19 20 21 22 23 24 25 26 27 28 29 30 31 32 33 34 35 36 37 38 39 40 41 42 43 44 45 46 47 48 49 50
000
ASUS43 KDTX 011310
RWRMI
MICHIGAN HOURLY REGIONAL WEATHER ROUNDUP
NATIONAL WEATHER SERVICE DETROIT/PONTIAC MI
ISSUED BY NATIONAL WEATHER SERVICE GRAND RAPIDS MI
800 AM EST WED MAR 01 2017

NOTE: "FAIR" INDICATES FEW OR NO CLOUDS BELOW 12,000 FEET WITH NO
SIGNIFICANT WEATHER AND/OR OBSTRUCTION TO VISIBILITY.

MIZ047>049-052>055-059>063-066>070-074>076-081>083-011400-
SOUTHEAST LOWER MICHIGAN

CITY           SKY/WX    TMP DP  RH WIND       PRES   REMARKS
ADRIAN         CLOUDY    50  49  96 SW12      29.45S
ALMA           FOG       46  46  98 W7        29.40F VSB 1/2
ANN ARBOR      CLOUDY    49  48  97 S9        29.42F
BAD AXE        CLOUDY    40  40 100 W5        29.40R
DETROIT CITY   PTCLDY    50  48  93 SW14      29.42F
DETROIT        CLOUDY    50  49  96 S9        29.43F
FLINT          CLOUDY    50  48  93 SW3       29.40F
GROSSE ILE     MOCLDY    43  42  97 S8        29.43F
HILLSDALE      CLOUDY    48  46  93 SW14G20   29.42F
HOWELL         MOCLDY    49  46  89 SW6       29.41S

CITY           SKY/WX    TMP DP  RH WIND       PRES   REMARKS
JACKSON        MOCLDY    51  48  89 SW15G24   29.41S
LANSING        CLOUDY    50  47  89 SW6       29.41S
MASON          CLOUDY    51  49  93 SW5       29.41R
MONROE         CLOUDY    51  50  95 S6        29.43F
MT. CLEMENS    CLOUDY    51  51 100 SW10      29.40S
PONTIAC        CLOUDY    50  46  86 SW6       29.40S
PORT HOPE        N/A     38  37  97 VRB6      29.38R WCI  33
PORT HURON     PTCLDY    48  48 100 SW5       29.41S
TRI CITIES     CLOUDY    43  43 100 E9        29.40F FOG
YPSILANTI      CLOUDY    52  49  89 SW13      29.43F
$$
MIZ043>046-050>051-056>058-064>065-071>073-077>080-011400-
SOUTHWEST LOWER MICHIGAN

CITY           SKY/WX    TMP DP  RH WIND       PRES   REMARKS
BATTLE CREEK   CLOUDY    51  50  96 SW13G24   29.42S
BENTON HARBOR  FOG       45  44  97 W7        29.41F VSB 1/4
BIG RAPIDS     CLOUDY    43  42  97 NE3       29.37F FOG
COLDWATER      CLOUDY    51  51  98 SW14G21   29.43F
HOLLAND        LGT RAIN  45  44  97 S3        29.39F VSB 1/4
GRAND RAPIDS   FOG       49  47  93 SW8       29.39F VSB 3/4
KALAMAZOO      CLOUDY    52  49  89 SW9       29.39F
MARSHALL       CLOUDY    51  50  97 SW12G20   29.42R
MOUNT PLEASANT LGT RAIN  44  44  99 NE3       29.39F
MUSKEGON       CLOUDY    42  41  96 S3        29.38F FOG
STURGIS        CLOUDY    51  49  95 S9        29.39F
$$
MIZ016>042-011400-
NORTHERN LOWER MICHIGAN

CITY           SKY/WX    TMP DP  RH WIND       PRES   REMARKS
ALPENA         CLOUDY    35  35 100 NE13      29.47R WCI  26
BEAVER ISLAND  LGT SNOW  26  25  96 N15       29.53S WCI  14
BELLAIRE       MIX PCPN  36  34  95 N3        29.46S
CADILLAC       RAIN      37  37  97 NE9       29.39S WCI  31
CHARLEVOIX     LGT SNOW  32  32 100 N9        29.51R WCI  25
GAYLORD        LGT RAIN  34  34 100 NE12      29.43S FOG     WCI  25
HOUGHTON LAKE  LGT RAIN  37  35  92 NE13      29.41S FOG     WCI  29
MANISTEE       LGT RAIN  37  35  92 N8        29.42F WCI  31
OSCODA         CLOUDY    38  37  96 N13       29.43R WCI  30
PELLSTON       SNOW      30  27  88 NE12      29.51R VSB 1/4 WCI  20
TRAVERSE CITY  LGT RAIN  37  35  92 N12       29.43F FOG     WCI  29
LUDINGTON      RAIN      38  38 100 N8G16     29.40R WCI  32
$$
MIZ007>008-015-011400-
EASTERN UPPER MICHIGAN

CITY           SKY/WX    TMP DP  RH WIND       PRES   REMARKS
KINROSS        FLURRIES  22  17  81 N15G23    29.54R WCI   9
MACKINAC ISLAN LGT SNOW  25  25 100 NE14G20   29.52R VSB 1   WCI  14
NEWBERRY       LGT SNOW  21  19  89 N13G21    29.56S WCI   9
S. S. MARIE    CLOUDY    23  15  71 NE9G16    29.56R WCI  13
$$
MIZ004>006-011>014-085-011400-
CENTRAL UPPER MICHIGAN

CITY           SKY/WX    TMP DP  RH WIND       PRES   REMARKS
MANISTIQUE     LGT SNOW  25  24  97 N15G24    29.55S WCI  12
ESCANABA       LGT SNOW  27  25  93 N12G17    29.57S VSB 3/4 WCI  16
MENOMINEE      LGT SNOW  27  25  92 N15G22    29.55F FOG     WCI  15
SAWYER-GWINN   SNOW      21  19  93 N18G26    29.62S VSB 1/2 WCI   6
$$
MIZ001>003-009>011-084-011400-
WESTERN UPPER MICHIGAN

CITY           SKY/WX    TMP DP  RH WIND       PRES   REMARKS
IRON MOUNTAIN  LGT SNOW  25  20  81 N18       29.60R VSB 3/4 WCI  11
HOUGHTON       CLOUDY    19  13  77 NE17G23   29.76R WCI   4
COPPER HARBOR    N/A     22  18  85 E26G33    29.80R WCI   5
IRONWOOD       FLURRIES  21  19  93 NE6G22    29.77R WCI  14
$$

ABBREVIATIONS USED IN REMARKS
   TC - TEMPERATURE IN CELSIUS
  WCI - WIND CHILL INDEX
   HX - HEAT INDEX
  VSB - VISIBILITY




USA.gov is the U.S. government's official web portal to all federal, state and local government web resources and services.